Hagerstown, MD

12:21 PM EDT on October 14, 2019 (GMT -0400)
Hagerstown Regional-Henson

Weather History for KHGR - August, 2019

Change the Weather History Date:

Sunday, August 11, 2019

  Actual Average Record
Temperature  
Mean Temperature 72 °F 74 °F  
Max Temperature 85 °F 84 °F 98 °F (2010)
Min Temperature 59 °F 64 °F 57 °F (1996)
Degree Days  
Heating Degree Days 0 0  
Month to date heating degree days 0 0  
Since 1 June heating degree days 5 18  
Since 1 July heating degree days 0 0  
Cooling Degree Days 7 9  
Month to date cooling degree days 133 104  
Year to date cooling degree days 1000 710  
Since 1 June cooling degree days 818 634  
Growing Degree Days 23 (Base 50)    
Moisture  
Dew Point 51 °F    
Average Humidity 47    
Maximum Humidity 67    
Minimum Humidity 27    
Precipitation  
Precipitation 0.00 in 0.10 in 0.61 in (2003)
Month to date precipitation 0.77 1.08  
Year to date precipitation 26.74 24.57  
Sea Level Pressure  
Sea Level Pressure 30.07 in    
Wind  
Wind Speed 4 mph (NNW)    
Max Wind Speed 14 mph    
Max Gust Speed 17 mph    
Visibility 10 miles    
Events      
T = Trace of Precipitation, MM = Missing Value Source: NWS Daily Summary

Daily Weather History Graph

Daily Weather History Graph

Search for Another Location

Airport or City:

Astronomy

Aug. 11, 2019 Rise Set
Actual Time 6:19 AM EDT 8:12 PM EDT
Civil Twilight 5:49 AM EDT 8:41 PM EDT
Nautical Twilight 5:14 AM EDT 9:17 PM EDT
Astronomical Twilight 4:35 AM EDT 9:55 PM EDT
Moon 5:49 PM EDT (8/11) 2:38 AM EDT (8/11)
Length of Visible Light 14h 51m
Length of Day
13h 53m
Waxing Gibbous, 87% of the Moon is Illuminated
Aug 11
Waxing Gibbous
Aug 15
Full
Aug 23
Last Quarter
Aug 30
New
Sep 5
First Quarter

Hourly Weather History & Observations

Time (EDT) Temp. Dew Point Humidity Pressure Visibility Wind Dir Wind Speed Gust Speed Precip Events Conditions
12:53 AM 69.1 °F 53.1 °F 57% 30.03 in 10.0 mi NNW 4.6 mph - N/A   Partly Cloudy
1:53 AM 66.9 °F 54.0 °F 63% 30.04 in 10.0 mi NNW 5.8 mph - N/A   Mostly Cloudy
2:53 AM 66.0 °F 53.1 °F 63% 30.04 in 10.0 mi NW 4.6 mph - N/A   Partly Cloudy
3:53 AM 64.0 °F 52.0 °F 65% 30.04 in 10.0 mi NNW 5.8 mph - N/A   Partly Cloudy
4:53 AM 62.1 °F 52.0 °F 70% 30.04 in 10.0 mi Calm Calm - N/A   Clear
5:53 AM 63.0 °F 52.0 °F 67% 30.07 in 10.0 mi Calm Calm - N/A   Clear
6:53 AM 64.0 °F 52.0 °F 65% 30.08 in 10.0 mi Calm Calm - N/A   Clear
7:53 AM 66.0 °F 53.1 °F 63% 30.11 in 10.0 mi Calm Calm - N/A   Clear
8:53 AM 69.1 °F 53.1 °F 57% 30.12 in 10.0 mi NW 3.5 mph - N/A   Clear
9:53 AM 73.0 °F 52.0 °F 48% 30.11 in 10.0 mi Calm Calm - N/A   Clear
10:53 AM 75.0 °F 52.0 °F 44% 30.12 in 10.0 mi Calm Calm - N/A   Clear
11:53 AM 75.9 °F 51.1 °F 42% 30.12 in 10.0 mi West 6.9 mph - N/A   Clear
12:53 PM 80.1 °F 48.9 °F 34% 30.10 in 10.0 mi NW 4.6 mph - N/A   Clear
1:53 PM 81.0 °F 48.0 °F 31% 30.09 in 10.0 mi Variable 5.8 mph - N/A   Clear
2:53 PM 82.0 °F 48.9 °F 31% 30.08 in 10.0 mi Variable 3.5 mph - N/A   Clear
3:53 PM 84.0 °F 46.0 °F 26% 30.06 in 10.0 mi NNW 8.1 mph - N/A   Clear
4:53 PM 84.0 °F 46.0 °F 26% 30.05 in 10.0 mi NW 6.9 mph - N/A   Clear
5:53 PM 84.0 °F 48.0 °F 28% 30.04 in 10.0 mi North 8.1 mph - N/A   Clear
6:53 PM 82.0 °F 46.9 °F 29% 30.04 in 10.0 mi NW 6.9 mph - N/A   Clear
7:53 PM 79.0 °F 48.9 °F 35% 30.04 in 10.0 mi North 4.6 mph - N/A   Clear
8:53 PM 75.9 °F 51.1 °F 42% 30.05 in 10.0 mi ENE 4.6 mph - N/A   Clear
9:53 PM 72.0 °F 52.0 °F 49% 30.05 in 10.0 mi East 6.9 mph - N/A   Clear
10:53 PM 70.0 °F 53.1 °F 55% 30.05 in 10.0 mi East 5.8 mph - N/A   Clear
11:53 PM 68.0 °F 53.1 °F 59% 30.06 in 10.0 mi Calm Calm - N/A   Clear